User: anonymous   Login
Location: Delta State University
(33.7460°N, 90.7320°W)
Time: 17:33:48
(UTC-05:00)
Language:

Iridium 13 - Orbit

View from above orbital plane
View from above orbital plane
View from above satellite
View from above satellite

Ground track
Ground track

The orbit data is extracted from the following two-line orbital elements,

1 24840U 97030E   15116.51810876  .00000225  00000-0  73189-4 0  9998
2 24840 086.3936 317.3681 0001972 093.1929 323.9440 14.34215260934768
Epoch (UTC): 26 April 2015 12:26:04
Eccentricity: 0.0001972
inclination: 86.3936°
perigee height: 776 km
apogee height: 779 km
right ascension of ascending node: 317.3681°
argument of perigee: 93.1929°
revolutions per day: 14.34215260
mean anomaly at epoch: 323.9440°
orbit number at epoch: 93476

The dashed part of the orbit path shows where the satellite is in the earth's shadow,  

DLR